• Join FlightAware (Why Join?)
  • Login
  • US Flag 
06:59PM EST


 

Airport Tracker/Info


-or-


 

Live Flight TrackerFlight Track Log ✈ DAL3688 ✈ 18-Apr-2013 ✈ KMDT - KDTW

Flight Track Log - Related Links

Times and Time Zones

All times are in EDT time to prevent confusion due to time zone crossing. See the DAL3688 flight status page for this flight to view local times or setup timezone preferences in your user account.

Time Position Orientation Groundspeed Altitude Reporting Facility
EDT Latitude Longitude Course Direction KTS MPH feet Rate Location/Type
01:01PM 40.1306 -76.7575 247° West 186 214 3,700  Level New York Center
01:02PM 40.1136 -76.8400 255° West 221 254 6,100 2,441 Climbing New York Center
01:03PM 40.2562 -77.1762 242° Southwest  Level FlightAware Approximate
01:03PM 40.1031 -76.9233 261° West 250 288 8,500  Level New York Center
01:04PM 40.2122 -77.2841 241° Southwest  Level FlightAware Approximate
01:04PM 40.0917 -77.0256 262° West 267 307 11,000  Level New York Center
01:05PM 40.1675 -77.3914 241° Southwest  Level FlightAware Approximate
01:05PM 40.0806 -77.1142 261° West 281 323 12,600  Level New York Center
01:06PM 40.1273 -77.5016 247° West  Level FlightAware Approximate
01:06PM 40.0636 -77.2344 260° West 292 336 14,400  Level New York Center
01:08PM 40.0372 -77.4700 262° West 320 368 16,400 1,082 Climbing Cleveland Center
01:09PM 40.0175 -77.5983 259° West 344 396 17,700 1,000 Climbing Cleveland Center
01:10PM 40.0022 -77.7292 261° West 355 409 18,400 850 Climbing Cleveland Center
01:11PM 39.9847 -77.8625 260° West 366 421 19,400 800 Climbing Cleveland Center
01:12PM 39.9775 -78.0011 266° West 380 437 20,000 750 Climbing Cleveland Center
01:13PM 39.9806 -78.1447 272° West 386 444 20,900 1,000 Climbing Cleveland Center
01:14PM 39.9797 -78.2992 270° West 386 444 22,000 950 Climbing Cleveland Center
01:15PM 39.9822 -78.4372 271° West 386 444 22,800 750 Climbing Cleveland Center
01:16PM 39.9867 -78.5672 273° West 386 444 23,500 700 Climbing Cleveland Center
01:17PM 39.9892 -78.7106 271° West 391 450 24,200 700 Climbing Cleveland Center
01:18PM 39.9936 -78.8542 272° West 396 456 24,900 750 Climbing Cleveland Center
01:19PM 40.0000 -79.0111 273° West 401 461 25,700 550 Climbing Cleveland Center
01:20PM 40.0039 -79.1547 272° West 401 461 26,000 150 Climbing Cleveland Center
01:21PM 40.0036 -79.3039 270° West 401 461 26,000  Level Cleveland Center
01:22PM 40.0158 -79.4581 276° West 412 474 26,000  Level Cleveland Center
01:23PM 40.0878 -79.5844 307° West 406 467 26,000  Level Cleveland Center
01:24PM 40.1597 -79.7164 306° West 430 495 26,000  Level Cleveland Center
01:25PM 40.2294 -79.8517 304° West 449 517 26,000  Level Cleveland Center
01:26PM 40.2992 -79.9869 304° West 454 522 26,000  Level Cleveland Center
01:27PM 40.3558 -80.1117 301° West 454 522 26,000  Level Cleveland Center
01:28PM 40.4272 -80.2531 304° West 454 522 26,000  Level Cleveland Center
01:29PM 40.5006 -80.3839 306° West 454 522 26,000  Level Cleveland Center
01:30PM 40.5694 -80.5231 303° West 454 522 26,000  Level Cleveland Center
01:31PM 40.6444 -80.6789 302° West 460 529 26,000  Level Cleveland Center
01:32PM 40.7069 -80.7994 304° West 460 529 26,000  Level Cleveland Center
01:33PM 40.7711 -80.9342 302° West 455 524 26,000  Level Cleveland Center
01:34PM 40.8417 -81.0825 302° West 445 512 26,000  Level Cleveland Center
01:35PM 40.8994 -81.2011 303° West 440 506 26,000  Level Cleveland Center
01:36PM 40.9672 -81.3419 303° West 440 506 26,000  Level Cleveland Center
01:37PM 41.0331 -81.4778 303° West 440 506 26,000  Level Cleveland Center
01:38PM 41.0986 -81.6192 302° West 440 506 26,000  Level Cleveland Center
01:39PM 41.1700 -81.7581 304° West 445 512 26,000  Level Cleveland Center
01:40PM 41.2375 -81.8975 303° West 450 518 26,000 -298 Level Cleveland Center
01:41PM 41.3044 -82.0425 302° West 455 524 25,400 -7,000 Descending Cleveland Center
01:42PM 41.3794 -82.1964 303° West 455 524 12,000 -2,471 Descending Cleveland Center
01:43PM 41.4444 -82.3089 308° West 444 511 20,500 3,000 Climbing Cleveland Center
01:44PM 41.5136 -82.4244 309° West 416 479 18,000 -2,450 Descending Cleveland Center
01:45PM 41.5825 -82.5403 309° West 404 465 15,600 -2,621 Descending Cleveland Center
01:46PM 41.6353 -82.6281 309° West 381 438 13,500 -2,800 Descending Cleveland Center
01:46PM 41.6556 -82.6592 311° West 388 447 12,800 -1,343 Descending Cleveland Center
01:47PM 41.7081 -82.7528 307° West 359 413 12,000 -375 Descending Cleveland Center
01:48PM 41.7811 -82.8497 315° West 379 436 12,100  Climbing Cleveland Center
01:49PM 41.8628 -82.9447 319° Northwest 385 443 12,000  Descending Cleveland Center
01:50PM 41.9442 -83.0397 319° Northwest 382 440 12,100  Climbing Cleveland Center
01:51PM 42.0211 -83.1350 317° Northwest 377 434 12,000 -47 Descending Cleveland Center
01:52PM 42.0903 -83.2189 318° Northwest 254 292 12,000 -333 Level Cleveland Center
01:53PM 42.1503 -83.2383 346° North 233 268 11,300 -1,160 Descending Cleveland Center
01:54PM 42.2219 -83.1992 22° Northeast 244 281 9,700 -1,550 Descending Cleveland Center
01:55PM 42.2939 -83.1489 27° Northeast 262 302 8,200 -768 Descending Cleveland Center
01:56PM 42.3722 -83.0958 27° Northeast 281 323 8,100 -95 Descending Cleveland Center
01:57PM 42.4464 -83.0481 25° Northeast 290 334 8,000 -517 Descending Cleveland Center
01:58PM 42.4933 -83.0836 331° Northwest 209 241 7,100 -769 Descending Cleveland Center
01:59PM 42.4881 -83.1369 262° West 140 161 6,500 -578 Descending Cleveland Center
02:00PM 42.4478 -83.1692 211° Southwest 140 161 5,800 -639 Descending Cleveland Center
02:01PM 42.4203 -83.1850 203° Southwest 141 162 5,200 -735 Descending Cleveland Center